Hazlehurst, GA

11:16 AM EDT on July 28, 2017 (GMT -0400)
Hazlehurst

Weather History for KAZE - December, 2013

Change the Weather History Date:

Saturday, December 28, 2013

  Actual Average Record
Temperature  
Mean Temperature 48 °F -  
Max Temperature 80 °F 55 °F 91 °F (2014)
Min Temperature 41 °F 38 °F 30 °F (2012)
Degree Days  
Heating Degree Days 17    
Moisture  
Dew Point 42 °F    
Average Humidity 80    
Maximum Humidity 100    
Minimum Humidity 58    
Precipitation  
Precipitation 0.00 in - - ()
Sea Level Pressure  
Sea Level Pressure 30.22 in    
Wind  
Wind Speed 5 mph (ENE)    
Max Wind Speed 8 mph    
Max Gust Speed -    
Visibility 8 miles    
Events Fog , Rain    
Averages and records for this station are not official NWS values.
T = Trace of Precipitation, MM = Missing Value Source: NWS Daily Summary

Daily Weather History Graph

Daily Weather History Graph

Search for Another Location

Airport or City:

Trip Planner

Search our weather history database for the weather conditions in past years. The results will help you decide how hot, cold, wet, or windy it might be!

Date:

Astronomy

Dec. 28, 2013 Rise Set
Actual Time 7:29 AM EST 5:34 PM EST
Civil Twilight 7:02 AM EST 6:01 PM EST
Nautical Twilight 6:32 AM EST 6:32 PM EST
Astronomical Twilight 6:02 AM EST 7:02 PM EST
Moon 3:13 AM EST 2:18 PM EST
Length of Visible Light 10h 59m
Length of Day
10h 05m
Waning Crescent, 19% of the Moon is Illuminated
Dec 28
Waning Crescent
Jan 1
New
Jan 7
First Quarter
Jan 15
Full
Jan 24
Last Quarter

Hourly Weather History & Observations

Time (EST) Temp. Windchill Dew Point Humidity Pressure Visibility Wind Dir Wind Speed Gust Speed Precip Events Conditions
12:15 AM 43.5 °F 41.9 °F 37.4 °F 79% 30.37 in 10.0 mi NE 3.5 mph - N/A   Clear
12:35 AM 43.3 °F 40.7 °F 37.6 °F 80% 30.37 in 10.0 mi NE 4.6 mph - N/A   Clear
12:55 AM 43.0 °F 41.3 °F 37.2 °F 80% 30.36 in 10.0 mi ENE 3.5 mph - N/A   Clear
1:15 AM 42.8 °F 40.1 °F 37.0 °F 80% 30.36 in 10.0 mi ENE 4.6 mph - N/A   Clear
1:35 AM 42.8 °F 41.1 °F 36.9 °F 80% 30.36 in 10.0 mi NE 3.5 mph - N/A   Clear
1:55 AM 42.3 °F 38.6 °F 36.9 °F 81% 30.34 in 10.0 mi ENE 5.8 mph - N/A   Clear
2:15 AM 42.4 °F 39.6 °F 36.7 °F 80% 30.33 in 10.0 mi NE 4.6 mph - N/A   Clear
2:35 AM 42.8 °F 40.1 °F 36.1 °F 77% 30.34 in 10.0 mi NE 4.6 mph - N/A   Clear
2:55 AM 42.8 °F 40.1 °F 36.1 °F 77% 30.33 in 10.0 mi ENE 4.6 mph - N/A   Clear
3:15 AM 42.8 °F 39.3 °F 35.8 °F 76% 30.32 in 10.0 mi ENE 5.8 mph - N/A   Clear
3:35 AM 42.8 °F 40.1 °F 36.0 °F 77% 30.34 in 10.0 mi NE 4.6 mph - N/A   Clear
3:55 AM 42.8 °F 41.1 °F 36.0 °F 77% 30.33 in 10.0 mi ENE 3.5 mph - N/A   Clear
4:15 AM 42.4 °F 40.7 °F 35.8 °F 77% 30.33 in 10.0 mi ENE 3.5 mph - N/A   Clear
4:35 AM 42.4 °F 39.6 °F 35.8 °F 77% 30.33 in 10.0 mi ENE 4.6 mph - N/A   Clear
4:55 AM 42.4 °F 40.7 °F 36.0 °F 78% 30.33 in 10.0 mi ENE 3.5 mph - N/A   Scattered Clouds
5:15 AM 42.3 °F 39.4 °F 36.0 °F 78% 30.32 in 10.0 mi ENE 4.6 mph - N/A   Scattered Clouds
5:35 AM 42.1 °F 37.7 °F 35.8 °F 78% 30.32 in 10.0 mi East 6.9 mph - N/A   Scattered Clouds
5:55 AM 41.9 °F 39.0 °F 35.8 °F 79% 30.31 in 10.0 mi ENE 4.6 mph - N/A   Scattered Clouds
6:15 AM 41.9 °F 39.0 °F 35.6 °F 78% 30.31 in 10.0 mi ENE 4.6 mph - N/A   Clear
6:35 AM 42.4 °F 38.8 °F 35.2 °F 76% 30.32 in 10.0 mi NE 5.8 mph - N/A   Mostly Cloudy
6:55 AM 43.0 °F 39.5 °F 35.4 °F 75% 30.32 in 10.0 mi NE 5.8 mph - N/A   Overcast
7:15 AM 43.2 °F 38.4 °F 35.1 °F 73% 30.32 in 10.0 mi ENE 8.1 mph - N/A   Overcast
7:35 AM 43.3 °F 39.9 °F 34.9 °F 72% 30.32 in 10.0 mi ENE 5.8 mph - N/A   Overcast
7:55 AM 43.2 °F 39.0 °F 34.7 °F 72% 30.32 in 10.0 mi ENE 6.9 mph - N/A   Overcast
8:15 AM 43.9 °F 40.5 °F 34.7 °F 70% 30.33 in 10.0 mi NE 5.8 mph - N/A   Overcast
8:35 AM 44.4 °F 40.5 °F 34.7 °F 69% 30.32 in 10.0 mi NE 6.9 mph - N/A   Overcast
8:55 AM 45.1 °F 40.8 °F 34.7 °F 67% 30.32 in 10.0 mi ENE 8.1 mph - N/A   Overcast
9:15 AM 45.9 °F 42.3 °F 34.7 °F 65% 30.32 in 10.0 mi ENE 6.9 mph - N/A   Overcast
9:35 AM 47.5 °F - 34.7 °F 61% 30.32 in 10.0 mi ENE 8.1 mph - N/A   Overcast
9:55 AM 49.3 °F - 34.9 °F 58% 30.33 in 10.0 mi NE 8.1 mph - N/A   Overcast
10:15 AM 49.8 °F - 35.6 °F 58% 30.32 in 10.0 mi NE 5.8 mph - N/A   Overcast
10:35 AM 50.4 °F - 36.1 °F 58% 30.32 in 10.0 mi ENE 6.9 mph - N/A   Overcast
10:55 AM 50.9 °F - 36.7 °F 58% 30.31 in 10.0 mi ENE 5.8 mph - N/A   Overcast
11:15 AM 51.1 °F - 37.2 °F 59% 30.31 in 10.0 mi ENE 5.8 mph - N/A   Overcast
11:35 AM 51.6 °F - 37.6 °F 59% 30.30 in 10.0 mi ENE 5.8 mph - N/A   Overcast
11:55 AM 51.8 °F - 38.3 °F 60% 30.27 in 10.0 mi ENE 6.9 mph - N/A   Overcast
12:15 PM 52.5 °F - 39.4 °F 61% 30.25 in 10.0 mi NE 6.9 mph - N/A   Overcast
12:35 PM 52.9 °F - 39.9 °F 61% 30.24 in 10.0 mi NE 5.8 mph - N/A   Overcast
12:55 PM 53.2 °F - 40.5 °F 62% 30.24 in 10.0 mi NE 4.6 mph - N/A   Overcast
1:15 PM 53.6 °F - 41.0 °F 62% 30.22 in 10.0 mi NE 3.5 mph - N/A   Overcast
1:35 PM 54.5 °F - 42.1 °F 63% 30.20 in 10.0 mi NE 5.8 mph - N/A   Overcast
1:55 PM 55.2 °F - 42.6 °F 63% 30.18 in 10.0 mi ENE 4.6 mph - N/A   Overcast
2:15 PM 55.6 °F - 43.3 °F 63% 30.18 in 10.0 mi ENE 5.8 mph - N/A   Overcast
2:35 PM 54.7 °F - 45.3 °F 71% 30.17 in 4.0 mi ENE 4.6 mph - N/A Rain Light Rain
2:55 PM 52.5 °F - 48.4 °F 86% 30.17 in 10.0 mi Calm Calm - N/A   Overcast
3:15 PM 52.7 °F - 49.5 °F 89% 30.16 in 10.0 mi East 3.5 mph - N/A   Overcast
3:35 PM 52.7 °F - 49.8 °F 90% 30.16 in 10.0 mi Calm Calm - N/A   Overcast
3:55 PM 52.5 °F - 50.0 °F 91% 30.15 in 7.0 mi ENE 4.6 mph - N/A   Light Drizzle
4:15 PM 52.2 °F - 50.2 °F 93% 30.14 in 10.0 mi NE 3.5 mph - N/A   Overcast
4:35 PM 52.2 °F - 50.0 °F 92% 30.15 in 10.0 mi NNE 3.5 mph - N/A   Overcast
4:55 PM 52.2 °F - 50.0 °F 92% 30.14 in 7.0 mi NE 3.5 mph - N/A   Light Drizzle
5:15 PM 51.8 °F - 50.0 °F 94% 30.14 in 10.0 mi North 3.5 mph - N/A   Light Drizzle
5:35 PM 51.6 °F - 50.0 °F 94% 30.13 in 10.0 mi NE 5.8 mph - N/A   Overcast
5:55 PM 51.3 °F - 49.8 °F 95% 30.11 in 10.0 mi NE 5.8 mph - N/A   Overcast
6:15 PM 51.4 °F - 49.6 °F 94% 30.12 in 10.0 mi ENE 5.8 mph - N/A   Overcast
6:35 PM 52.0 °F - 50.2 °F 94% 30.12 in 10.0 mi NE 4.6 mph - N/A   Overcast
6:55 PM 52.2 °F - 50.9 °F 95% 30.11 in 10.0 mi NE 4.6 mph - N/A   Overcast
7:15 PM 52.3 °F - 51.4 °F 97% 30.11 in 10.0 mi ENE 6.9 mph - N/A   Overcast
7:35 PM 52.3 °F - 51.8 °F 98% 30.11 in 5.0 mi ENE 8.1 mph - N/A   Overcast
7:55 PM 52.0 °F - 51.6 °F 99% 30.10 in 4.0 mi ENE 8.1 mph - N/A   Overcast
8:15 PM 51.6 °F - 51.3 °F 99% 30.09 in 4.0 mi ENE 6.9 mph - N/A   Overcast
8:35 PM 50.9 °F - 50.9 °F 100% 30.09 in 5.0 mi ENE 5.8 mph - N/A   Overcast
8:55 PM 50.7 °F - 50.7 °F 100% 30.08 in 4.0 mi East 6.9 mph - N/A   Overcast
9:15 PM 50.5 °F - 50.7 °F 100% 30.07 in 3.0 mi East 5.8 mph - N/A   Overcast
9:35 PM - - - N/A% 30.06 in 2.5 mi East 6.9 mph - N/A   Overcast
9:55 PM - - - N/A% 30.04 in 1.8 mi East 3.5 mph - N/A   Overcast
10:15 PM 51.1 °F - 51.3 °F 100% 30.03 in 2.0 mi East 3.5 mph - N/A   Overcast
10:35 PM 51.6 °F - 51.8 °F 100% 30.02 in 1.0 mi East 6.9 mph - N/A   Overcast
10:55 PM 52.0 °F - 52.2 °F 100% 30.02 in 0.8 mi Calm Calm - N/A   Overcast
11:15 PM 52.5 °F - 52.5 °F 100% 30.02 in 0.5 mi East 4.6 mph - N/A Fog Fog
11:35 PM 52.9 °F - 53.1 °F 100% 30.01 in 0.5 mi ESE 4.6 mph - N/A Fog Fog
11:55 PM 53.6 °F - 53.8 °F 100% 30.00 in 0.5 mi ESE 4.6 mph - N/A Fog Fog